This demonstration page uses our WeatherBlox Daily Observations layout. Learn more.

Left ArrowRight Arrow

36.19886, -115.1175

Hourly Observations for January 2, 2021

Temp ( °F °C ) Dew Point ( °F °C ) Humidity (%) Winds ( mph kmh ) Pressure ( in mb ) Visibility ( mi km ) Precip ( " mm )
12:53 am 00:53 Clear 40 4.4 21 -6.1 47 47 WNW 3 6 30.24 1024 10 16.0934 0 0
1:53 am 01:53 Clear 40 4.4 21 -6.1 47 47 Calm 30.27 1025 10 16.0934 0 0
2:53 am 02:53 Clear 39 3.9 21 -6.1 48 48 Calm 30.25 1024 10 16.0934 0 0
3:53 am 03:53 Clear 37 2.8 21 -6.1 52 52 N 5 7 30.26 1025 10 16.0934 0 0
4:53 am 04:53 Clear 35 1.7 19 -7.2 52 52 WNW 7 11 30.27 1025 10 16.0934 0 0
5:53 am 05:53 Clear 36 2.2 19 -7.2 50 50 WNW 3 6 30.28 1026 10 16.0934 0 0
6:53 am 06:53 Sunny 37 2.8 21 -6.1 52 52 Calm 30.31 1027 10 16.0934 0 0
7:53 am 07:53 Sunny 39 3.9 22 -5.6 50 50 SSW 3 6 30.32 1027 10 16.0934 0 0
8:53 am 08:53 Sunny 43 6.1 22 -5.6 43 43 SW 3 6 30.33 1027 10 16.0934 0 0
9:53 am 09:53 Sunny 46 7.8 23 -5 40 40 ESE 6 9 30.31 1026 10 16.0934 0 0
10:53 am 10:53 Sunny 49 9.4 23 -5 36 36 E 5 7 30.28 1026 10 16.0934 0 0
11:53 am 11:53 Sunny 51 10.6 22 -5.6 32 32 VRB 3 6 30.26 1025 10 16.0934 0 0
12:53 pm 12:53 Sunny 53 11.7 21 -6.1 28 28 Calm 30.24 1024 10 16.0934 0 0
1:53 pm 13:53 Sunny 55 12.8 21 -6.1 26 26 Calm 30.23 1024 10 16.0934 0 0
2:53 pm 14:53 Sunny 54 12.2 21 -6.1 28 28 Calm 30.24 1024 10 16.0934 0 0
3:53 pm 15:53 Sunny 54 12.2 21 -6.1 28 28 E 3 6 30.22 1023 10 16.0934 0 0
4:53 pm 16:53 Clear 53 11.7 21 -6.1 28 28 Calm 30.23 1024 10 16.0934 0 0
5:53 pm 17:53 Clear 50 10 21 -6.1 32 32 Calm 30.24 1024 10 16.0934 0 0
6:53 pm 18:53 Clear 47 8.3 21 -6.1 36 36 NW 3 6 30.25 1024 10 16.0934 0 0
7:53 pm 19:53 Clear 45 7.2 22 -5.6 40 40 NW 6 9 30.24 1024 10 16.0934 0 0
8:53 pm 20:53 Clear 44 6.7 22 -5.6 41 41 WNW 5 7 30.24 1024 10 16.0934 0 0
9:53 pm 21:53 Clear 41 5 22 -5.6 47 47 W 5 7 30.23 1024 10 16.0934 0 0
10:53 pm 22:53 Clear 41 5 22 -5.6 47 47 Calm 30.24 1024 10 16.0934 0 0
11:53 pm 23:53 Clear 39 3.9 21 -6.1 48 48 Calm 30.23 1024 10 16.0934 0 0

Powered by AerisWeather